Time,TemperatureF,DewpointF,PressureIn,WindDirection,WindDirectionDegrees,WindSpeedMPH,WindSpeedGustMPH,Humidity,HourlyPrecipIn,Conditions,Clouds,dailyrainin,SolarRadiationWatts/m^2,SoftwareType,DateUTC
2013-02-17 00:01:00,59.0,45.0,-100.00,ESE,116,0.0,6.0,60,0.00,,,0.00,0.000000,,2013-02-17 10:01:00,
2013-02-17 00:11:00,59.0,45.0,-100.00,ESE,116,0.0,6.0,60,0.00,,,0.00,0.000000,,2013-02-17 10:11:00,
2013-02-17 00:21:00,59.0,45.0,-100.00,ESE,116,0.0,6.0,60,0.00,,,0.00,0.000000,,2013-02-17 10:21:00,
2013-02-17 00:31:00,59.0,45.0,-100.00,ESE,116,0.0,6.0,60,0.00,,,0.00,0.000000,,2013-02-17 10:31:00,
2013-02-17 01:01:00,57.0,44.0,-100.00,SSE,159,5.0,17.0,62,0.00,,,0.00,0.000000,,2013-02-17 11:01:00,
2013-02-17 01:11:00,57.0,44.0,-100.00,SSE,159,5.0,17.0,62,0.00,,,0.00,0.000000,,2013-02-17 11:11:00,
2013-02-17 01:21:00,57.0,44.0,-100.00,SSE,159,5.0,17.0,62,0.00,,,0.00,0.000000,,2013-02-17 11:21:00,
2013-02-17 01:32:00,57.0,44.0,-100.00,SSE,159,5.0,17.0,62,0.00,,,0.00,0.000000,,2013-02-17 11:32:00,
2013-02-17 02:03:00,58.0,44.0,-100.00,East,83,4.0,19.0,60,0.00,,,0.00,0.000000,,2013-02-17 12:03:00,
2013-02-17 02:11:00,58.0,44.0,-100.00,East,83,4.0,19.0,60,0.00,,,0.00,0.000000,,2013-02-17 12:11:00,
2013-02-17 02:22:00,58.0,44.0,-100.00,East,83,4.0,19.0,60,0.00,,,0.00,0.000000,,2013-02-17 12:22:00,
2013-02-17 02:31:00,58.0,44.0,-100.00,East,83,4.0,19.0,60,0.00,,,0.00,0.000000,,2013-02-17 12:31:00,
2013-02-17 03:02:00,61.0,43.0,-100.00,East,94,10.0,14.0,52,0.00,,,0.00,0.000000,,2013-02-17 13:02:00,
2013-02-17 03:11:00,61.0,43.0,-100.00,East,94,10.0,14.0,52,0.00,,,0.00,0.000000,,2013-02-17 13:11:00,
2013-02-17 03:21:00,61.0,43.0,-100.00,East,94,10.0,14.0,52,0.00,,,0.00,0.000000,,2013-02-17 13:21:00,
2013-02-17 03:32:00,61.0,43.0,-100.00,East,94,10.0,14.0,52,0.00,,,0.00,0.000000,,2013-02-17 13:32:00,
2013-02-17 04:01:00,60.0,42.0,-100.00,SE,145,9.0,19.0,52,0.00,,,0.00,0.000000,,2013-02-17 14:01:00,
2013-02-17 04:11:00,60.0,42.0,-100.00,SE,145,9.0,19.0,52,0.00,,,0.00,0.000000,,2013-02-17 14:11:00,
2013-02-17 04:21:00,60.0,42.0,-100.00,SE,145,9.0,19.0,52,0.00,,,0.00,0.000000,,2013-02-17 14:21:00,
2013-02-17 04:32:00,60.0,42.0,-100.00,SE,145,9.0,19.0,52,0.00,,,0.00,0.000000,,2013-02-17 14:32:00,
2013-02-17 05:01:00,59.0,39.0,-100.00,SE,137,8.0,17.0,48,0.00,,,0.00,0.000000,,2013-02-17 15:01:00,
2013-02-17 05:11:00,59.0,39.0,-100.00,SE,137,8.0,17.0,48,0.00,,,0.00,0.000000,,2013-02-17 15:11:00,
2013-02-17 05:21:00,59.0,39.0,-100.00,SE,137,8.0,17.0,48,0.00,,,0.00,0.000000,,2013-02-17 15:21:00,
2013-02-17 05:31:00,59.0,39.0,-100.00,SE,137,8.0,17.0,48,0.00,,,0.00,0.000000,,2013-02-17 15:31:00,
2013-02-17 06:01:00,59.0,38.0,-100.00,ESE,120,2.0,24.0,46,0.00,,,-99.99,0.000000,,2013-02-17 16:01:00,
2013-02-17 06:11:00,59.0,38.0,-100.00,ESE,120,2.0,24.0,46,0.00,,,-99.99,0.000000,,2013-02-17 16:11:00,
2013-02-17 06:21:00,59.0,38.0,-100.00,ESE,120,2.0,24.0,46,0.00,,,-99.99,0.000000,,2013-02-17 16:21:00,
2013-02-17 06:31:00,59.0,38.0,-100.00,ESE,120,2.0,24.0,46,0.00,,,-99.99,0.000000,,2013-02-17 16:31:00,
2013-02-17 06:52:00,59.0,40.0,-100.00,SSE,153,10.0,21.0,49,0.00,,,0.00,0.000000,,2013-02-17 16:52:00,
2013-02-17 07:02:00,59.0,40.0,-100.00,SSE,153,10.0,21.0,49,0.00,,,0.00,0.000000,,2013-02-17 17:02:00,
2013-02-17 07:11:00,59.0,40.0,-100.00,SSE,153,10.0,21.0,49,0.00,,,0.00,0.000000,,2013-02-17 17:11:00,
2013-02-17 07:21:00,59.0,40.0,-100.00,SSE,153,10.0,21.0,49,0.00,,,0.00,0.000000,,2013-02-17 17:21:00,
2013-02-17 07:31:00,59.0,40.0,-100.00,SSE,153,10.0,21.0,49,0.00,,,0.00,0.000000,,2013-02-17 17:31:00,
2013-02-17 08:01:00,62.0,42.0,-100.00,ESE,102,4.0,22.0,48,0.00,,,0.00,52.000000,,2013-02-17 18:01:00,
2013-02-17 08:11:00,62.0,42.0,-100.00,ESE,102,4.0,22.0,48,0.00,,,0.00,52.000000,,2013-02-17 18:11:00,
2013-02-17 08:21:00,62.0,42.0,-100.00,ESE,102,4.0,22.0,48,0.00,,,0.00,52.000000,,2013-02-17 18:21:00,
2013-02-17 08:33:00,62.0,42.0,-100.00,ESE,102,4.0,22.0,48,0.00,,,0.00,52.000000,,2013-02-17 18:33:00,
2013-02-17 09:01:00,66.0,41.0,-100.00,NE,44,6.0,15.0,40,0.00,,,0.00,281.000000,,2013-02-17 19:01:00,
2013-02-17 09:11:00,66.0,41.0,-100.00,NE,44,6.0,15.0,40,0.00,,,0.00,281.000000,,2013-02-17 19:11:00,
2013-02-17 09:21:00,66.0,41.0,-100.00,NE,44,6.0,15.0,40,0.00,,,0.00,281.000000,,2013-02-17 19:21:00,
2013-02-17 09:32:00,66.0,41.0,-100.00,NE,44,6.0,15.0,40,0.00,,,0.00,281.000000,,2013-02-17 19:32:00,
2013-02-17 10:01:00,68.0,53.0,-100.00,NW,318,7.0,11.0,58,0.00,,,0.00,619.000000,,2013-02-17 20:01:00,
2013-02-17 10:11:00,68.0,53.0,-100.00,NW,318,7.0,11.0,58,0.00,,,0.00,619.000000,,2013-02-17 20:11:00,
2013-02-17 10:21:00,68.0,53.0,-100.00,NW,318,7.0,11.0,58,0.00,,,0.00,619.000000,,2013-02-17 20:21:00,
2013-02-17 10:31:00,68.0,53.0,-100.00,NW,318,7.0,11.0,58,0.00,,,0.00,619.000000,,2013-02-17 20:31:00,
2013-02-17 11:01:00,70.0,51.0,-100.00,West,265,7.0,15.0,51,0.00,,,0.00,860.000000,,2013-02-17 21:01:00,
2013-02-17 11:11:00,70.0,51.0,-100.00,West,265,7.0,15.0,51,0.00,,,0.00,860.000000,,2013-02-17 21:11:00,
2013-02-17 11:21:00,70.0,51.0,-100.00,West,265,7.0,15.0,51,0.00,,,0.00,860.000000,,2013-02-17 21:21:00,
2013-02-17 11:31:00,70.0,51.0,-100.00,West,265,7.0,15.0,51,0.00,,,0.00,860.000000,,2013-02-17 21:31:00,
2013-02-17 12:01:00,73.0,51.0,-100.00,WNW,294,6.0,14.0,46,0.00,,,0.00,1026.000000,,2013-02-17 22:01:00,
2013-02-17 12:12:00,73.0,51.0,-100.00,WNW,294,6.0,14.0,46,0.00,,,0.00,1026.000000,,2013-02-17 22:12:00,
2013-02-17 12:21:00,73.0,51.0,-100.00,WNW,294,6.0,14.0,46,0.00,,,0.00,1026.000000,,2013-02-17 22:21:00,
2013-02-17 12:32:00,73.0,51.0,-100.00,WNW,294,6.0,14.0,46,0.00,,,0.00,1026.000000,,2013-02-17 22:32:00,
2013-02-17 13:02:00,73.0,52.0,-100.00,NW,304,8.0,20.0,48,0.00,,,0.00,1029.000000,,2013-02-17 23:02:00,
2013-02-17 13:11:00,73.0,52.0,-100.00,NW,304,8.0,20.0,48,0.00,,,0.00,1029.000000,,2013-02-17 23:11:00,
2013-02-17 13:21:00,73.0,52.0,-100.00,NW,304,8.0,20.0,48,0.00,,,0.00,1029.000000,,2013-02-17 23:21:00,
2013-02-17 13:31:00,73.0,52.0,-100.00,NW,304,8.0,20.0,48,0.00,,,0.00,1029.000000,,2013-02-17 23:31:00,
2013-02-17 14:01:00,74.0,53.0,-100.00,West,262,12.0,19.0,48,0.00,,,0.00,1190.000000,,2013-02-18 00:01:00,
2013-02-17 14:11:00,74.0,53.0,-100.00,West,262,12.0,19.0,48,0.00,,,0.00,1190.000000,,2013-02-18 00:11:00,
2013-02-17 14:22:00,74.0,53.0,-100.00,West,262,12.0,19.0,48,0.00,,,0.00,1190.000000,,2013-02-18 00:22:00,
2013-02-17 14:31:00,74.0,53.0,-100.00,West,262,12.0,19.0,48,0.00,,,0.00,1190.000000,,2013-02-18 00:31:00,
2013-02-17 15:01:00,75.0,55.0,-100.00,West,268,12.0,24.0,49,0.00,,,0.00,889.000000,,2013-02-18 01:01:00,
2013-02-17 15:11:00,75.0,55.0,-100.00,West,268,12.0,24.0,49,0.00,,,0.00,889.000000,,2013-02-18 01:11:00,
2013-02-17 15:21:00,75.0,55.0,-100.00,West,268,12.0,24.0,49,0.00,,,0.00,889.000000,,2013-02-18 01:21:00,
2013-02-17 15:31:00,75.0,55.0,-100.00,West,268,12.0,24.0,49,0.00,,,0.00,889.000000,,2013-02-18 01:31:00,
2013-02-17 16:01:00,73.0,52.0,-100.00,NE,48,8.0,32.0,47,0.00,,,0.00,509.000000,,2013-02-18 02:01:00,
2013-02-17 16:11:00,73.0,52.0,-100.00,NE,48,8.0,32.0,47,0.00,,,0.00,509.000000,,2013-02-18 02:11:00,
2013-02-17 16:21:00,73.0,52.0,-100.00,NE,48,8.0,32.0,47,0.00,,,0.00,509.000000,,2013-02-18 02:21:00,
2013-02-17 16:31:00,73.0,52.0,-100.00,NE,48,8.0,32.0,47,0.00,,,0.00,509.000000,,2013-02-18 02:31:00,
2013-02-17 17:01:00,70.0,55.0,-100.00,WSW,250,13.0,23.0,59,0.00,,,0.00,339.000000,,2013-02-18 03:01:00,
2013-02-17 17:11:00,70.0,55.0,-100.00,WSW,250,13.0,23.0,59,0.00,,,0.00,339.000000,,2013-02-18 03:11:00,
2013-02-17 17:21:00,70.0,55.0,-100.00,WSW,250,13.0,23.0,59,0.00,,,0.00,339.000000,,2013-02-18 03:21:00,
2013-02-17 17:31:00,70.0,55.0,-100.00,WSW,250,13.0,23.0,59,0.00,,,0.00,339.000000,,2013-02-18 03:31:00,
2013-02-17 18:01:00,68.0,57.0,-100.00,West,275,10.0,26.0,67,0.00,,,0.00,199.000000,,2013-02-18 04:01:00,
2013-02-17 18:11:00,68.0,57.0,-100.00,West,275,10.0,26.0,67,0.00,,,0.00,199.000000,,2013-02-18 04:11:00,
2013-02-17 18:21:00,68.0,57.0,-100.00,West,275,10.0,26.0,67,0.00,,,0.00,199.000000,,2013-02-18 04:21:00,
2013-02-17 18:32:00,68.0,57.0,-100.00,West,275,10.0,26.0,67,0.00,,,0.00,199.000000,,2013-02-18 04:32:00,
2013-02-17 19:01:00,64.0,55.0,-100.00,WNW,292,8.0,20.0,73,0.00,,,0.00,21.000000,,2013-02-18 05:01:00,
2013-02-17 19:11:00,64.0,55.0,-100.00,WNW,292,8.0,20.0,73,0.00,,,0.00,21.000000,,2013-02-18 05:11:00,
2013-02-17 19:21:00,64.0,55.0,-100.00,WNW,292,8.0,20.0,73,0.00,,,0.00,21.000000,,2013-02-18 05:21:00,
2013-02-17 19:31:00,64.0,55.0,-100.00,WNW,292,8.0,20.0,73,0.00,,,0.00,21.000000,,2013-02-18 05:31:00,
2013-02-17 20:02:00,61.0,54.0,-100.00,West,275,0.0,16.0,78,0.00,,,0.00,0.000000,,2013-02-18 06:02:00,
2013-02-17 20:11:00,61.0,54.0,-100.00,West,275,0.0,16.0,78,0.00,,,0.00,0.000000,,2013-02-18 06:11:00,
2013-02-17 20:21:00,61.0,54.0,-100.00,West,275,0.0,16.0,78,0.00,,,0.00,0.000000,,2013-02-18 06:21:00,
2013-02-17 20:31:00,61.0,54.0,-100.00,West,275,0.0,16.0,78,0.00,,,0.00,0.000000,,2013-02-18 06:31:00,
2013-02-17 21:01:00,59.0,54.0,-100.00,ESE,120,4.0,7.0,82,0.00,,,0.00,0.000000,,2013-02-18 07:01:00,
2013-02-17 21:11:00,59.0,54.0,-100.00,ESE,120,4.0,7.0,82,0.00,,,0.00,0.000000,,2013-02-18 07:11:00,
2013-02-17 21:21:00,59.0,54.0,-100.00,ESE,120,4.0,7.0,82,0.00,,,0.00,0.000000,,2013-02-18 07:21:00,
2013-02-17 21:31:00,59.0,54.0,-100.00,ESE,120,4.0,7.0,82,0.00,,,0.00,0.000000,,2013-02-18 07:31:00,
2013-02-17 22:01:00,63.0,55.0,-100.00,West,266,6.0,11.0,76,0.00,,,0.00,0.000000,,2013-02-18 08:01:00,
2013-02-17 22:11:00,63.0,55.0,-100.00,West,266,6.0,11.0,76,0.00,,,0.00,0.000000,,2013-02-18 08:11:00,
2013-02-17 22:21:00,63.0,55.0,-100.00,West,266,6.0,11.0,76,0.00,,,0.00,0.000000,,2013-02-18 08:21:00,
2013-02-17 22:32:00,63.0,55.0,-100.00,West,266,6.0,11.0,76,0.00,,,0.00,0.000000,,2013-02-18 08:32:00,
2013-02-17 23:02:00,60.0,52.0,-100.00,SSW,210,8.0,15.0,75,0.00,,,-99.99,0.000000,,2013-02-18 09:02:00,
2013-02-17 23:11:00,60.0,52.0,-100.00,SSW,210,8.0,15.0,75,0.00,,,-99.99,0.000000,,2013-02-18 09:11:00,
2013-02-17 23:22:00,60.0,52.0,-100.00,SSW,210,8.0,15.0,75,0.00,,,-99.99,0.000000,,2013-02-18 09:22:00,
2013-02-17 23:31:00,60.0,52.0,-100.00,SSW,210,8.0,15.0,75,0.00,,,-99.99,0.000000,,2013-02-18 09:31:00,